Randolph AFB, TX

12:27 AM CDT on April 25, 2017 (GMT -0500)
Randolph Air Force Base

Weather History for KRND - June, 2013

Change the Weather History Date:

Saturday, June 22, 2013

  Actual Average Record
Temperature  
Mean Temperature 85 °F -  
Max Temperature 96 °F 89 °F 100 °F (1998)
Min Temperature 74 °F 71 °F 68 °F (1997)
Cooling Degree Days 20    
Growing Degree Days 35 (Base 50)    
Moisture  
Dew Point 71 °F    
Average Humidity 68    
Maximum Humidity 100    
Minimum Humidity 34    
Precipitation  
Precipitation 0.00 in - - ()
Sea Level Pressure  
Sea Level Pressure 30.00 in    
Wind  
Wind Speed 12 mph (South)    
Max Wind Speed 21 mph    
Max Gust Speed 28 mph    
Visibility 10 miles    
Events      
Averages and records for this station are not official NWS values.
T = Trace of Precipitation, MM = Missing Value Source: NWS Daily Summary

Daily Weather History Graph

Daily Weather History Graph

Search for Another Location

Airport or City:

Trip Planner

Search our weather history database for the weather conditions in past years. The results will help you decide how hot, cold, wet, or windy it might be!

Date:

Astronomy

Jun. 22, 2013 Rise Set
Actual Time 6:34 AM CDT 8:36 PM CDT
Civil Twilight 6:06 AM CDT 9:03 PM CDT
Nautical Twilight 5:33 AM CDT 9:36 PM CDT
Astronomical Twilight 4:58 AM CDT 10:12 PM CDT
Moon 7:57 PM CDT (6/22) 5:43 AM CDT (6/22)
Length of Visible Light 14h 57m
Length of Day
14h 02m
Waxing Gibbous, 99% of the Moon is Illuminated
Jun 22
Waxing Gibbous
Jun 23
Full
Jun 29
Last Quarter
Jul 8
New
Jul 15
First Quarter

Hourly Weather History & Observations

Time (CDT) Temp. Heat Index Dew Point Humidity Pressure Visibility Wind Dir Wind Speed Gust Speed Precip Events Conditions
12:07 AM 78.8 °F - 75.2 °F 89% 30.04 in 10.0 mi SSE 13.8 mph - N/A   Mostly Cloudy
12:16 AM 78.8 °F - 75.2 °F 89% 30.04 in 10.0 mi South 12.7 mph - N/A   Scattered Clouds
12:58 AM 77.2 °F - 74.8 °F 92% 30.01 in 10.0 mi SSE 12.7 mph - N/A   Mostly Cloudy
1:16 AM 77.0 °F - 75.2 °F 94% 30.03 in 10.0 mi SSE 9.2 mph - N/A   Mostly Cloudy
1:58 AM 77.2 °F - 75.6 °F 95% 30.01 in 10.0 mi South 9.2 mph - N/A   Overcast
2:58 AM 77.4 °F - 75.9 °F 95% 29.99 in 10.0 mi South 10.4 mph - N/A   Overcast
3:58 AM 77.4 °F - 75.9 °F 95% 29.97 in 10.0 mi South 13.8 mph - N/A   Overcast
4:58 AM 76.8 °F - 75.9 °F 97% 29.97 in 10.0 mi South 12.7 mph - N/A   Overcast
5:25 AM 75.2 °F - 75.2 °F 100% 30.01 in 10.0 mi South 10.4 mph 18.4 mph N/A   Scattered Clouds
5:58 AM 75.0 °F - 74.7 °F 99% 29.99 in 10.0 mi South 8.1 mph - N/A   Clear
6:43 AM 75.2 °F - 73.4 °F 94% 30.02 in 10.0 mi South 8.1 mph - N/A   Mostly Cloudy
6:52 AM 75.2 °F - 75.2 °F 100% 30.03 in 10.0 mi South 9.2 mph - N/A   Mostly Cloudy
6:58 AM 74.8 °F - 74.5 °F 99% 30.01 in 10.0 mi South 11.5 mph - N/A   Mostly Cloudy
7:07 AM 75.2 °F - 75.2 °F 100% 30.03 in 10.0 mi South 8.1 mph - N/A   Scattered Clouds
7:16 AM 75.2 °F - 75.2 °F 100% 30.03 in 10.0 mi South 8.1 mph - N/A   Mostly Cloudy
7:34 AM 75.2 °F - 75.2 °F 100% 30.03 in 10.0 mi South 6.9 mph - N/A   Mostly Cloudy
7:58 AM 75.9 °F - 75.6 °F 99% 30.02 in 10.0 mi South 9.2 mph - N/A   Overcast
8:07 AM 77.0 °F - 75.2 °F 94% 30.04 in 10.0 mi South 10.4 mph - N/A   Overcast
8:16 AM 77.0 °F - 75.2 °F 94% 30.04 in 10.0 mi South 11.5 mph - N/A   Overcast
8:52 AM 78.8 °F - 75.2 °F 89% 30.06 in 10.0 mi South 13.8 mph - N/A   Overcast
8:58 AM 78.4 °F - 74.3 °F 87% 30.04 in 10.0 mi South 10.4 mph - N/A   Overcast
9:34 AM 80.6 °F 86.2 °F 75.2 °F 84% 30.06 in 10.0 mi South 12.7 mph - N/A   Scattered Clouds
9:58 AM 84.4 °F 91.3 °F 73.6 °F 70% 30.04 in 10.0 mi SW 12.7 mph - N/A   Scattered Clouds
10:07 AM 84.2 °F 90.9 °F 73.4 °F 70% 30.06 in 10.0 mi SSW 13.8 mph - N/A   Mostly Cloudy
10:25 AM 84.2 °F 90.9 °F 73.4 °F 70% 30.05 in 10.0 mi South 10.4 mph - N/A   Scattered Clouds
10:58 AM 84.7 °F 91.4 °F 73.2 °F 68% 30.03 in 10.0 mi SSW 12.7 mph - N/A   Partly Cloudy
11:58 AM 88.3 °F 93.6 °F 70.2 °F 55% 30.03 in 10.0 mi SSE 15.0 mph - N/A   Scattered Clouds
12:58 PM 91.4 °F 96.3 °F 69.3 °F 48% 30.01 in 10.0 mi SSE 12.7 mph 18.4 mph N/A   Partly Cloudy
1:09 PM 91.4 °F 95.4 °F 68.0 °F 46% 30.04 in 10.0 mi SSW 16.1 mph 21.9 mph N/A   Partly Cloudy
1:34 PM 93.2 °F 96.2 °F 66.2 °F 41% 30.03 in 10.0 mi SSW 13.8 mph 19.6 mph N/A   Scattered Clouds
1:58 PM 93.2 °F 96.2 °F 66.0 °F 41% 29.99 in 10.0 mi South 18.4 mph 23.0 mph N/A   Partly Cloudy
2:37 PM 95.0 °F 98.5 °F 66.2 °F 39% 30.00 in 10.0 mi SSE 12.7 mph 21.9 mph N/A   Clear
2:46 PM 93.2 °F 94.9 °F 64.4 °F 38% 30.00 in 10.0 mi SSE 13.8 mph 21.9 mph N/A   Clear
2:47 PM 95.0 °F 97.0 °F 64.4 °F 36% 30.00 in 10.0 mi SSE 12.7 mph 21.9 mph N/A   Clear
2:48 PM 95.0 °F 97.0 °F 64.4 °F 36% 30.00 in 10.0 mi SE 12.7 mph 21.9 mph N/A   Clear
2:58 PM 94.3 °F 95.8 °F 63.5 °F 36% 29.97 in 10.0 mi South 13.8 mph 21.9 mph N/A   Clear
2:59 PM 95.0 °F 97.0 °F 64.4 °F 36% 30.00 in 10.0 mi South 16.1 mph 25.3 mph N/A   Clear
3:00 PM 95.0 °F 97.0 °F 64.4 °F 36% 30.00 in 10.0 mi SSW 17.3 mph 25.3 mph N/A   Clear
3:41 PM 95.0 °F 98.5 °F 66.2 °F 39% 29.98 in 10.0 mi SE 15.0 mph - N/A   Partly Cloudy
3:58 PM 94.5 °F 97.5 °F 65.8 °F 39% 29.94 in 10.0 mi SSW 11.5 mph 18.4 mph N/A   Clear
4:58 PM 95.7 °F 97.7 °F 64.4 °F 35% 29.91 in 10.0 mi SSE 12.7 mph - N/A   Partly Cloudy
5:43 PM 96.8 °F 99.0 °F 64.4 °F 34% 29.93 in 10.0 mi South 12.7 mph 21.9 mph N/A   Partly Cloudy
5:58 PM 95.9 °F 98.0 °F 64.0 °F 35% 29.89 in 10.0 mi South 16.1 mph 27.6 mph N/A   Clear
6:02 PM 95.0 °F 97.0 °F 64.4 °F 36% 29.92 in 10.0 mi SE 16.1 mph - N/A   Clear
6:58 PM 93.7 °F 94.9 °F 62.8 °F 36% 29.88 in 10.0 mi SSE 19.6 mph 21.9 mph N/A   Clear
7:58 PM 89.4 °F 91.2 °F 64.9 °F 44% 29.90 in 10.0 mi SSE 20.7 mph 25.3 mph N/A   Clear
8:58 PM 85.6 °F 88.5 °F 67.5 °F 54% 29.92 in 10.0 mi SSE 13.8 mph - N/A   Clear
9:58 PM 82.2 °F 85.3 °F 68.4 °F 63% 29.94 in 10.0 mi SSE 11.5 mph - N/A   Clear
10:58 PM 80.8 °F 84.4 °F 70.7 °F 71% 29.96 in 10.0 mi South 10.4 mph - N/A   Clear
11:58 PM 78.4 °F - 72.3 °F 81% 29.98 in 10.0 mi SSE 11.5 mph - N/A   Clear